N551JL KMYR-KFLO

Flight info

Callsign N551JL
Flight time 0h 24m
Altitude 10000
Route KOOKE CLETA
Aircraft BE20/L-SBGRY/S

Departure

Time 2026-04-28 22:51
Airport Myrtle Beach International Airport (KMYR)

Arrival

Time 2026-04-28 23:15
Airport Florence Regional Airport (KFLO)
Time Latitude Longitude Altitude Speed Heading
2026-04-28 22:40 33.67398 -78.93318 30 ft 0 kts 166°
2026-04-28 22:47 33.67391 -78.93316 30 ft 4 kts 165°
2026-04-28 22:47 33.67398 -78.93256 30 ft 13 kts 78°
2026-04-28 22:47 33.67428 -78.93112 32 ft 22 kts 42°
2026-04-28 22:48 33.67607 -78.93108 31 ft 30 kts 349°
2026-04-28 22:48 33.67832 -78.93165 30 ft 36 kts 350°
2026-04-28 22:48 33.68082 -78.93224 25 ft 31 kts 348°
2026-04-28 22:48 33.68311 -78.93282 24 ft 35 kts 349°
2026-04-28 22:49 33.68491 -78.93331 25 ft 22 kts
2026-04-28 22:49 33.68585 -78.93233 25 ft 21 kts 64°
2026-04-28 22:49 33.68607 -78.93094 28 ft 0 kts 79°
2026-04-28 22:49 33.68607 -78.93093 28 ft 0 kts 79°
2026-04-28 22:50 33.68609 -78.93080 28 ft 0 kts 80°
2026-04-28 22:50 33.68612 -78.93062 28 ft 6 kts 81°
2026-04-28 22:50 33.68596 -78.92988 27 ft 15 kts 156°
2026-04-28 22:50 33.68443 -78.92950 25 ft 41 kts 168°
2026-04-28 22:51 33.67897 -78.92809 47 ft 114 kts 170°
2026-04-28 22:51 33.67313 -78.92663 190 ft 144 kts 172°
2026-04-28 22:51 33.65884 -78.92318 870 ft 169 kts 167°
2026-04-28 22:51 33.65094 -78.92047 1221 ft 179 kts 166°
2026-04-28 22:52 33.63439 -78.91449 1924 ft 194 kts 165°
2026-04-28 22:52 33.62124 -78.90959 2454 ft 200 kts 166°
2026-04-28 22:52 33.61219 -78.90618 2812 ft 204 kts 166°
2026-04-28 22:52 33.59965 -78.89820 3332 ft 212 kts 135°
2026-04-28 22:53 33.59337 -78.88254 3920 ft 211 kts 93°
2026-04-28 22:53 33.59619 -78.86609 4524 ft 203 kts 53°
2026-04-28 22:53 33.60668 -78.85572 5149 ft 191 kts 14°
2026-04-28 22:53 33.61953 -78.85285 5746 ft 187 kts 356°
2026-04-28 22:54 33.63197 -78.85593 6350 ft 185 kts 332°
2026-04-28 22:54 33.64274 -78.86415 6927 ft 184 kts 326°
2026-04-28 22:54 33.65430 -78.87121 7503 ft 188 kts 334°
2026-04-28 22:54 33.66659 -78.87710 8075 ft 191 kts 335°
2026-04-28 22:55 33.67910 -78.88285 8678 ft 193 kts 335°
2026-04-28 22:55 33.69185 -78.88880 9287 ft 195 kts 334°
2026-04-28 22:55 33.70457 -78.89479 9902 ft 198 kts 334°
2026-04-28 22:55 33.71795 -78.90113 10003 ft 221 kts 335°
2026-04-28 22:56 33.73288 -78.90815 10010 ft 237 kts 335°
2026-04-28 22:56 33.74857 -78.91549 10008 ft 246 kts 335°
2026-04-28 22:56 33.76467 -78.92305 10017 ft 250 kts 335°
2026-04-28 22:56 33.78100 -78.93074 10014 ft 252 kts 335°
2026-04-28 22:57 33.79742 -78.93849 10009 ft 254 kts 335°
2026-04-28 22:57 33.81371 -78.94616 10008 ft 254 kts 335°
2026-04-28 22:57 33.83032 -78.95400 10008 ft 254 kts 335°
2026-04-28 22:57 33.84681 -78.96178 10006 ft 254 kts 335°
2026-04-28 22:58 33.86326 -78.96955 10003 ft 254 kts 335°
2026-04-28 22:58 33.87976 -78.97734 10002 ft 254 kts 335°
2026-04-28 22:58 33.89625 -78.98513 10003 ft 254 kts 335°
2026-04-28 22:58 33.91268 -78.99290 10003 ft 254 kts 335°
2026-04-28 22:59 33.92896 -79.00115 10002 ft 251 kts 328°
2026-04-28 22:59 33.94252 -79.01361 9935 ft 251 kts 313°
2026-04-28 22:59 33.95304 -79.03116 9474 ft 260 kts 298°
2026-04-28 22:59 33.96159 -79.05045 8936 ft 267 kts 298°
2026-04-28 23:00 33.97043 -79.07016 8399 ft 267 kts 297°
2026-04-28 23:00 33.97923 -79.08960 7865 ft 265 kts 298°
2026-04-28 23:00 33.98809 -79.10922 7336 ft 265 kts 298°
2026-04-28 23:00 33.99688 -79.12878 6841 ft 265 kts 298°
2026-04-28 23:01 34.00559 -79.14814 6545 ft 259 kts 298°
2026-04-28 23:01 34.01408 -79.16703 6269 ft 254 kts 298°
2026-04-28 23:01 34.02249 -79.18574 6031 ft 250 kts 298°
2026-04-28 23:01 34.03067 -79.20396 5890 ft 245 kts 298°
2026-04-28 23:02 34.03866 -79.22175 5762 ft 242 kts 298°
2026-04-28 23:02 34.04663 -79.23951 5633 ft 240 kts 298°
2026-04-28 23:02 34.05457 -79.25723 5509 ft 239 kts 298°
2026-04-28 23:02 34.06247 -79.27486 5373 ft 238 kts 298°
2026-04-28 23:03 34.07032 -79.29236 5256 ft 237 kts 298°
2026-04-28 23:03 34.07867 -79.30932 5128 ft 235 kts 307°
2026-04-28 23:03 34.09079 -79.32263 5003 ft 236 kts 324°
2026-04-28 23:03 34.10462 -79.33323 4888 ft 236 kts 325°
2026-04-28 23:04 34.11852 -79.34395 4763 ft 237 kts 324°
2026-04-28 23:04 34.14622 -79.36541 4513 ft 236 kts 324°
2026-04-28 23:04 34.16003 -79.37610 4398 ft 236 kts 324°
2026-04-28 23:05 34.17367 -79.38666 4325 ft 235 kts 324°
2026-04-28 23:05 34.18743 -79.39731 4248 ft 234 kts 324°
2026-04-28 23:05 34.20117 -79.40797 4172 ft 234 kts 324°
2026-04-28 23:05 34.21486 -79.41859 4097 ft 234 kts 324°
2026-04-28 23:06 34.22859 -79.42923 4023 ft 234 kts 323°
2026-04-28 23:06 34.24199 -79.43959 3945 ft 225 kts 323°
2026-04-28 23:06 34.25499 -79.44969 3866 ft 218 kts 322°
2026-04-28 23:06 34.26755 -79.45944 3785 ft 211 kts 322°
2026-04-28 23:07 34.27978 -79.46895 3704 ft 207 kts 322°
2026-04-28 23:07 34.29169 -79.47822 3637 ft 205 kts 322°
2026-04-28 23:07 34.30360 -79.48747 3561 ft 203 kts 322°
2026-04-28 23:07 34.31552 -79.49675 3486 ft 202 kts 322°
2026-04-28 23:08 34.32726 -79.50588 3414 ft 201 kts 323°
2026-04-28 23:08 34.33902 -79.51504 3345 ft 201 kts 323°
2026-04-28 23:08 34.35089 -79.52428 3264 ft 200 kts 322°
2026-04-28 23:08 34.36103 -79.53524 3175 ft 195 kts 303°
2026-04-28 23:09 34.36705 -79.54982 3083 ft 194 kts 284°
2026-04-28 23:09 34.36857 -79.56602 2987 ft 194 kts 270°
2026-04-28 23:09 34.36889 -79.58237 2892 ft 196 kts 271°
2026-04-28 23:09 34.36929 -79.59889 2791 ft 196 kts 271°
2026-04-28 23:10 34.36967 -79.61526 2692 ft 197 kts 271°
2026-04-28 23:10 34.37004 -79.63205 2591 ft 197 kts 271°
2026-04-28 23:10 34.37041 -79.64850 2429 ft 200 kts 270°
2026-04-28 23:10 34.37077 -79.66542 2224 ft 203 kts 270°
2026-04-28 23:11 34.37043 -79.68255 2036 ft 203 kts 258°
2026-04-28 23:11 34.36529 -79.69824 1996 ft 199 kts 239°
2026-04-28 23:11 34.35603 -79.71055 1993 ft 197 kts 219°
2026-04-28 23:11 34.34371 -79.71806 1993 ft 202 kts 198°
2026-04-28 23:12 34.32969 -79.71999 1992 ft 203 kts 184°
2026-04-28 23:12 34.31549 -79.72039 1995 ft 204 kts 184°
2026-04-28 23:12 34.30136 -79.72086 1982 ft 203 kts 184°
2026-04-28 23:12 34.28712 -79.72128 1993 ft 204 kts 183°
2026-04-28 23:13 34.27279 -79.72168 1856 ft 203 kts 183°
2026-04-28 23:13 34.25923 -79.72203 1583 ft 190 kts 183°
2026-04-28 23:13 34.24626 -79.72233 1257 ft 182 kts 183°
2026-04-28 23:13 34.23393 -79.72259 997 ft 167 kts 183°
2026-04-28 23:14 34.22344 -79.72299 895 ft 133 kts 186°
2026-04-28 23:14 34.21542 -79.72340 758 ft 113 kts 183°
2026-04-28 23:14 34.20686 -79.72367 618 ft 130 kts 185°
2026-04-28 23:14 34.19852 -79.72415 380 ft 108 kts 185°
2026-04-28 23:15 34.19137 -79.72432 189 ft 101 kts 185°
2026-04-28 23:15 34.18459 -79.72454 146 ft 88 kts 185°
2026-04-28 23:15 34.18184 -79.72493 140 ft 19 kts 243°
2026-04-28 23:15 34.18230 -79.72596 141 ft 19 kts
2026-04-28 23:16 34.18389 -79.72589 144 ft 27 kts
2026-04-28 23:16 34.18599 -79.72585 148 ft 33 kts
2026-04-28 23:16 34.18852 -79.72573 149 ft 32 kts
2026-04-28 23:16 34.18983 -79.72610 151 ft 20 kts 290°
2026-04-28 23:17 34.19031 -79.72794 151 ft 23 kts 297°
2026-04-28 23:17 34.19152 -79.72838 153 ft 20 kts 349°
2026-04-28 23:17 34.19255 -79.72931 154 ft 20 kts 346°
2026-04-28 23:17 34.19293 -79.73080 154 ft 21 kts 314°
2026-04-28 23:18 34.19351 -79.73162 154 ft 14 kts 271°
2026-04-28 23:18 34.19352 -79.73174 154 ft 0 kts 273°